Weather History for Clarksburg, WV

Change the Weather History Date:

Tuesday, February 7, 2012

  Actual Average Record
Temperature  
Mean Temperature 40 °F -  
Max Temperature 50 °F 38 °F 66 °F (1938)
Min Temperature 30 °F 21 °F 0 °F (1962)
Degree Days  
Heating Degree Days 25    
Moisture  
Dew Point 27 °F    
Average Humidity 67    
Maximum Humidity 86    
Minimum Humidity 37    
Precipitation  
Precipitation 0.00 in - - ()
Sea Level Pressure  
Sea Level Pressure 30.19 in    
Wind  
Wind Speed 4 mph (WSW)    
Max Wind Speed 9 mph    
Max Gust Speed -    
Visibility 10 miles    
Events      
Averages and records for this station are not official NWS values.
T = Trace of Precipitation, MM = Missing Value Source: NWS Daily Summary

Daily Weather History Graph

Daily Weather History Graph

Search for Another Location

Airport:

Trip Planner

Search our weather history database for the weather conditions in past years. The results will help you decide how hot, cold, wet, or windy it might be!

Date:

Astronomy

Feb. 07, 2012 Rise Set
Actual Time 7:22 AM EST 5:48 PM EST
Civil Twilight 6:54 AM EST 6:15 PM EST
Nautical Twilight 6:22 AM EST 6:47 PM EST
Astronomical Twilight 5:51 AM EST 7:19 PM EST
Moon 5:56 PM EST (2/7) 6:50 AM EST (2/7)
Length of Visible Light 11h 21m
Length of Day
10h 25m
Full, 100% of the Moon is Illuminated
Feb 7
Full
Feb 7
Full
Feb 14
Last Quarter
Feb 21
New
Feb 29
First Quarter

Hourly Weather History & Observations

Time (EST) Temp. Windchill Dew Point Humidity Pressure Visibility Wind Dir Wind Speed Gust Speed Precip Events Conditions
12:53 AM 35.1 °F 30.1 °F 27.0 °F 72% 30.17 in 10.0 mi SSW 5.8 mph - N/A   Clear
1:53 AM 34.0 °F 29.8 °F 27.0 °F 75% 30.17 in 10.0 mi SSW 4.6 mph - N/A   Clear
2:53 AM 34.0 °F 29.8 °F 27.0 °F 75% 30.17 in 10.0 mi South 4.6 mph - N/A   Clear
3:53 AM 33.1 °F - 27.0 °F 78% 30.15 in 10.0 mi Calm Calm - N/A   Clear
4:53 AM 32.0 °F - 27.0 °F 82% 30.16 in 10.0 mi Calm Calm - N/A   Clear
5:53 AM 30.9 °F - 27.0 °F 85% 30.17 in 10.0 mi Calm Calm - N/A   Clear
6:53 AM 30.0 °F 25.2 °F 27.0 °F 88% 30.19 in 10.0 mi SSW 4.6 mph - N/A   Clear
7:53 AM 30.9 °F 27.5 °F 27.0 °F 85% 30.20 in 9.0 mi South 3.5 mph - N/A   Clear
8:53 AM 35.1 °F 32.2 °F 30.9 °F 85% 30.22 in 10.0 mi SSW 3.5 mph - N/A   Clear
9:53 AM 37.9 °F 34.4 °F 30.9 °F 76% 30.22 in 10.0 mi SW 4.6 mph - N/A   Clear
10:53 AM 42.1 °F 39.2 °F 30.0 °F 62% 30.21 in 10.0 mi SW 4.6 mph - N/A   Clear
11:53 AM 45.0 °F 40.6 °F 28.9 °F 53% 30.19 in 10.0 mi West 8.1 mph - N/A   Clear
12:53 PM 46.0 °F 44.8 °F 30.0 °F 54% 30.17 in 10.0 mi Variable 3.5 mph - N/A   Clear
1:53 PM 48.0 °F - 27.0 °F 44% 30.15 in 10.0 mi West 8.1 mph - N/A   Clear
2:53 PM 48.9 °F - 26.1 °F 41% 30.14 in 10.0 mi West 6.9 mph - N/A   Clear
3:53 PM 50.0 °F - 26.1 °F 39% 30.15 in 10.0 mi West 6.9 mph - N/A   Clear
4:53 PM 48.0 °F - 23.0 °F 37% 30.16 in 10.0 mi WNW 6.9 mph - N/A   Clear
5:53 PM 44.1 °F 39.0 °F 25.0 °F 47% 30.18 in 10.0 mi NNW 9.2 mph - N/A   Clear
6:53 PM 39.0 °F 34.8 °F 28.0 °F 65% 30.20 in 10.0 mi North 5.8 mph - N/A   Clear
7:53 PM 37.0 °F 33.3 °F 26.1 °F 65% 30.21 in 10.0 mi NNE 4.6 mph - N/A   Clear
8:53 PM 35.1 °F 30.1 °F 26.1 °F 70% 30.22 in 10.0 mi NNE 5.8 mph - N/A   Clear
9:53 PM 34.0 °F 28.0 °F 26.1 °F 73% 30.22 in 10.0 mi North 6.9 mph - N/A   Clear
10:53 PM 32.0 °F - 25.0 °F 75% 30.22 in 10.0 mi Calm Calm - N/A   Clear
11:53 PM 32.0 °F - 25.0 °F 75% 30.22 in 9.0 mi Calm Calm - N/A   Clear